Location: *
(41.7492°S, 135.4150°W)
Time: 23:06:04
(UTC+00:00)

Meteor 1-31 Rocket - Pass Details

Date: 20 September 2021
Orbit: 519 x 546 km, 97.7° (Epoch: 25 October)

Event Time Altitude Azimuth Distance (km) Brightness Sun altitude
Rises 12:52:16 0° 29° (NNE) 2,658 6.4 -23.0°
Reaches altitude 10° 12:54:26 10° 35° (NE) 1,774 5.6 -22.6°
Maximum altitude 12:58:04 44° 107° (ESE) 750 3.9 -22.0°
Drops below altitude 10° 13:01:45 10° 179° (S) 1,792 5.7 -21.3°
Sets 13:03:56 0° 185° (S) 2,688 6.5 -21.0°
